sat.trackr.live / text

‹ back to catalog

STARLINK-34881

NORAD 65347 · 2025-189AA

PAYLOAD ACTIVE UNKNOWN

§ Identity

Operator
Country
US
Launch date
2025-08-27
Launch site
AFETR
Launch vehicle
Mass (kg)
RCS (m²)

Purposes: comms

External: N2YO · Heavens-Above · Gunter

§ Orbital elements

Epoch: 2026-05-25T04:46:40.687392Z

Period
94.01 min
Inclination
53.1578°
Eccentricity
0.0001042
Mean motion
15.31722010 rev/d
Perigee alt
470.0 km
Apogee alt
471.4 km
Semi-major
6,848.8 km
B*
5.0025e-4
RAAN
211.1570°
Arg perigee
80.3876°
Mean anomaly
279.7243°
Rev number
4,283

§ Raw data

STARLINK-348811 65347U 25189AA  26145.19908203  .00015200  00000+0  50025-3 0  99922 65347  53.1578 211.1570 0001042  80.3876 279.7243 15.31722010 42835

JSON: /api/v1/satellites/65347 · /tle

For live sub-satellite position, see the globe view (requires WebGL).

§ Visibility from observer

Set your observer location to see the next 7 days of passes ≥ 10°. The values pass through the URL so the page stays shareable.

No JS? Fill the form by hand. The geolocation button needs JavaScript.